Saturday, January 20, 2018, 9:19 AM GMT
Back to Local

CWEW, L'Assomption

Location: , , Canada Lat: 45.817
Local Time: 9:19 AM GMT ( 9:19 GMT) Lon: -73.433
Time Zone: GMT Elev: 68 ft

Show me the last for .
Show Coded

Time T Td Feel RH Dir Speed Gust Alt SLP Vis Weather Sky Remarks
2018-01-20 09:00 31 24 23 77 180° 9 - - 29.48 0 None
2018-01-20 08:00 30 24 22 75 190° 9 - - 29.53 0 None
2018-01-20 07:00 30 24 21 75 190° 10 - - 29.57 0 None
2018-01-20 06:00 30 24 21 76 190° 10 - - 29.60 0 None
2018-01-20 05:00 30 24 18 75 190° 12 18 - 29.63 0 None
2018-01-20 04:00 30 24 23 77 180° 8 - - 29.67 0 None
2018-01-20 03:00 31 24 20 75 200° 12 18 - 29.70 0 None
2018-01-20 02:00 33 25 22 72 210° 12 17 - 29.75 0 None
2018-01-20 01:00 31 26 22 81 210° 10 - - 29.77 0 None
2018-01-20 00:00 30 27 24 88 200° 6 - - 29.80 0 None
2018-01-19 23:00 29 25 22 86 220° 6 - - 29.82 0 None
2018-01-19 22:00 28 24 20 82 220° 8 - - 29.82 0 None
2018-01-19 21:00 28 23 21 80 210° 7 - - 29.83 0 None
2018-01-19 20:00 29 23 21 76 220° 9 - - 29.84 0 None
2018-01-19 19:00 27 22 18 80 220° 10 - - 29.85 0 None
2018-01-19 18:00 27 21 18 77 230° 9 - - 29.86 0 None
2018-01-19 17:00 27 21 18 79 230° 9 - - 29.88 0 None
2018-01-19 16:00 26 22 19 82 220° 7 - - 29.90 0 None
2018-01-19 15:00 26 22 16 83 230° 10 - - 29.91 0 None
2018-01-19 14:00 26 22 16 86 220° 9 - - 29.90 0 None
2018-01-19 13:00 25 22 16 87 220° 9 - - 29.91 0 None
2018-01-19 12:00 24 20 16 82 230° 7 - - 29.91 0 None
2018-01-19 11:00 24 19 16 82 220° 7 - - 29.90 0 None
2018-01-19 10:00 24 19 17 82 230° 6 - - 29.90 0 None

Support USWX by starting your Amazon purchase here.